FENGYUN 1C DEB

Satellite information

Favourite Embed

Satellite Type and Status

DEBRISIN ORBIT

Key statistics

Satellite FENGYUN 1C DEB at a glance.

Uptime

9714

Days in orbit

Revolutions

≈ 14.1

Per day

Orbit

SSO

Sun Synchronous Orbit

Inclination

99.5

Latest

Satellite identification and parameters

Extended collection of information and parameters for FENGYUN 1C DEB.

Object identification

Identified? True

Debris? True

Object name: FENGYUN 1C DEB

International designator: 1999-025DKP

Object number (NORAD): 35111

Object ID (CCSDS): 35111

Country: PEOPLES REPUBLIC OF CHINA (PRC)

Current information (Y/N): Y

RCS size: SMALL

Orbital parameters

Period: 102.059 minutes

Inclination: 99.4664 deg

SMA: 7234.244 km

Apoapsis: 871.741 km

Periapsis: 840.478 km

RAAN: 59.8627 deg

Eccentricy: 0.00216077

Argument of periapsis: 235.1352 deg

Mean anomaly: 124.7786 deg

Mean motion: 14.10954545 rev/day

Mean motion (dot): 0.00001356 rev/day2

B* drag term: 0.00078112566 1/REarth

Two-line elements (TLE)

Creation date: Dec. 8, 2025, 3:46 a.m.

Reference frame: TEME

Reference center: EARTH

Epoch: Dec. 7, 2025, 11:45 a.m. UTC

TLE line 0: 0 FENGYUN 1C DEB

TLE line 1: 1 35111U 99025DKP 25341.49008754 .00001356 00000-0 78113-3 0 9996

TLE line 2: 2 35111 99.4664 59.8627 0021608 235.1352 124.7786 14.10954545640706

Live tracking on map

Real-time ground track for satellite FENGYUN 1C DEB.

In-orbit conjunctions

A list of the most updated potential collisions computed for object FENGYUN 1C DEB.

Target Orbit TCA Probability of collision Miss distance Type
CZ-6A DEB LEO 2025-03-16 13:09:00 0.0001859607 147.0 (m) DEBRIS
CZ-6A DEB LEO 2025-02-17 15:41:28 0.0001459164 359.0 (m) DEBRIS
CZ-6A DEB LEO 2025-01-03 11:02:00 0.0001712017 685.0 (m) DEBRIS

Associated space launch

Chinese polar orbiting meteorological satellite

FENGYUN 1C DEB was lifted into orbit during the mission ‘Long March 4B | Feng Yun 1C’, on board a Long March 4B space rocket.

The launch took place on May 10, 1999, 1:33 a.m. from Launch Complex 7.

For more information about the launch, click the button.

Launch to space Long March 4B | Feng Yun 1C
Long March 4B | Feng Yun 1C

Agency: N/A

Status: Launch Successful

Launch date: May 10, 1999, 1:33 a.m. UTC

Rocket: Long March 4B

Launch pad: Launch Complex 7

Location: Taiyuan Satellite Launch Center, People's Republic of China

...

Latest news about this satellite

There are no fresh news available about this satellite. Check back as we update our databases every day.


Newsletter sign-up

Weekly statistics, charts and insights to help you stay on top of the space industry.